ONEWEB-0020, 45133

Orbit data source: Space-Track

ONEWEB-0020, 45133 is a payload satellite owned by One Web (UK) in LEO that was launched on Thu, 06 Feb 2020 UTC via a SOYUZ-2-1B launch vehicle from the Tyuratam Missile And Space Complex (TTMTR). Payload-class satellites include a variety of spacecraft equipped with specific instruments for various scientific and technological missions. These include communications satellites like Starlink; space stations such as the ISS; scientific satellites like the Hubble; Earth observation satellites from companies like Planet Labs, Umbra, and HawkEye 360; GPS; miniature CubeSats for education and research; and military/defense satellites.

Loading next visibility...
Identifier
45133, 2020-008C
Orbit
LEO
Country
Flag of UKUK
Related business
Manufacturer
One Web
Mission
Operational Commercial Communications
Bus & Motor
ARROW, Unknown motor
Mass
148 kg wet, ~140 kg dry
Launch date (UTC)
2020-02-06 (6 years ago)
Launch vehicle
SOYUZ-2-1B
Launch site
Tyuratam Missile And Space Complex (TTMTR)
Object type
Payload
Rocket body
Debris
Shape & HBR
Trap Box + 2 Pan, 6.7 m
Radar Cross Section
3.464 m², Large (>1 m²)

Expand to show TLE details & history
Last TLE update: 1 day ago

TLE from 1 day ago
0 ONEWEB-0020
1 45133U 20008C   25301.45391780  .00000505  00000-0  14105-2 0  9997
2 45133  87.8780  82.4547 0001637  88.1189 272.0126 13.10374667277990
Epoch: 2025-10-28T10:53Z
TLE epoch observation values (Epoch: 2025-10-28T10:53:38.497Z)
Latitude
-0.00003°
Longitude
-117.99689°
Altitude
1,224.554 km
Speed
7.242 km/s
True Right ascension
05h 29m 49s
True Declination
0° 00' 00"
Sunlit
Object was in full shadow at epoch
Visualization orbit readout
Latitude
Unknown
Longitude
Unknown
Altitude
Unknown
Speed
Unknown
Apparent Right ascension
Unknown
Apparent Declination
Unknown
Sunlit
N/A
Visualization observer readout
Local Sidereal Time
07:27:38
Azimuth
Unknown
Elevation
Unknown
Doppler factor
Unknown
Orbital elements
Apogee altitude
1,220.073 km
Perigee altitude
1,217.586 km
Semi-major axis
7,596.967 km
Eccentricity
0.00016
Inclination
87.878°
RAAN
82.4547°
Arg. of periapsis
88.1189°
True anomaly
271.99385°
Mean anomaly
272.0126°
Eccentric anomaly
272.00323°
Mean motion
3.2778 °/min
Orbital period
109.83 mins
BSTAR
0.0014105
Loading maneuver chart data...
Computing Atmospheric mass density...
Loading historical data...
Loading historical data...
Loading historical data...
Loading historical data...
Loading historical data...
Loading historical data...
Loading historical data...

Documentation

Showing up to 5 results
|